DW2671 Weather Reports


Display with metric or nautical units.
time (UTC)temp
F
wind
direction
speed
MPH
gust
MPH
rain 1hr
in
rain 24hr
in
rain mn
in
humidity
%
barometer
mb
20191020101103 30 225 0.0 0.0 0.00 0.00 0.00 94 1013.2
20191020100104 30 225 0.0 0.0 0.00 0.00 0.00 94 1013.2
20191020095104 30 225 0.0 0.0 0.00 0.00 0.00 94 1012.9
20191020094103 31 225 0.0 0.0 0.00 0.00 0.00 94 1013.2
20191020093104 30 225 0.0 0.0 0.00 0.00 0.00 94 1013.2
20191020092104 30 225 0.0 0.0 0.00 0.00 0.00 94 1013.2
20191020091103 30 225 0.0 0.0 0.00 0.00 0.00 94 1012.9
20191020090105 30 225 0.0 0.0 0.00 0.00 0.00 94 1012.9
20191020085103 31 225 0.0 0.0 0.00 0.00 0.00 94 1012.9
20191020084104 30 225 0.0 0.0 0.00 0.00 0.00 94 1012.9
20191020083104 31 225 0.0 0.0 0.00 0.00 0.00 94 1012.9
20191020082104 31 225 0.0 0.0 0.00 0.00 0.00 95 1012.9
20191020081104 31 225 0.0 0.0 0.00 0.00 0.00 95 1012.9
20191020075104 32 225 0.0 0.0 0.00 0.00 0.00 95 1013.5
20191020074103 31 225 0.0 0.0 0.00 0.00 0.00 95 1013.2
20191020073104 32 225 0.0 0.0 0.00 0.00 0.00 95 1013.2
20191020072104 32 225 0.0 0.0 0.00 0.00 0.00 95 1013.2
20191020071103 32 225 0.0 2.0 0.00 0.00 0.00 95 1013.2
20191020070103 32 225 0.0 0.0 0.00 0.00 0.00 95 1013.2
20191020065104 32 225 0.0 0.0 0.00 0.00 0.00 95 1013.2
20191020064104 32 225 0.0 0.0 0.00 0.00 0.00 95 1013.2
20191020063104 33 225 0.0 0.0 0.00 0.00 0.00 95 1013.2
20191020062103 32 225 0.0 0.0 0.00 0.00 0.00 95 1013.2
20191020061104 33 225 0.0 0.0 0.00 0.00 0.00 95 1013.2
20191020060104 33 225 0.0 0.0 0.00 0.00 0.00 95 1013.2
20191020055103 33 225 0.0 0.0 0.00 0.00 0.00 95 1013.2
20191020054103 34 225 0.0 0.0 0.00 0.00 0.00 95 1012.9
20191020053103 34 225 0.0 0.0 0.00 0.00 0.00 95 1012.9
20191020052103 34 225 0.0 0.0 0.00 0.00 0.00 95 1013.2
20191020051103 34 225 0.0 0.0 0.00 0.00 0.00 95 1012.9
20191020050104 34 225 0.0 0.0 0.00 0.00 0.00 95 1012.9
20191020045103 34 225 0.0 0.0 0.00 0.00 0.00 95 1012.9
20191020044104 34 225 0.0 0.0 0.00 0.00 0.00 95 1013.2
20191020043103 34 225 0.0 0.0 0.00 0.00 0.00 95 1013.2
20191020042103 34 225 0.0 0.0 0.00 0.00 0.00 95 1013.2
20191020041106 35 225 0.0 0.0 0.00 0.00 0.00 95 1013.2
20191020040104 35 225 0.0 0.0 0.00 0.00 0.00 95 1013.5
20191020035103 36 225 0.0 2.0 0.00 0.00 0.00 95 1013.5
20191020034103 36 225 0.0 2.0 0.00 0.00 0.00 95 1013.5
20191020033104 36 225 0.0 0.0 0.00 0.00 0.00 95 1013.2
20191020032103 36 225 0.0 0.0 0.00 0.00 0.00 95 1013.2
20191020031104 36 225 0.0 0.0 0.00 0.00 0.00 95 1012.9
20191020030104 36 225 0.0 0.0 0.00 0.00 0.00 95 1012.9
20191020025104 36 225 0.0 0.0 0.00 0.00 0.00 95 1013.2
20191020024104 37 225 0.0 0.0 0.00 0.00 0.00 95 1013.2
20191020023103 37 225 0.0 0.0 0.00 0.00 0.00 95 1012.9
20191020022103 37 225 0.0 0.0 0.00 0.00 0.00 95 1012.9
20191020021103 37 225 0.0 0.0 0.00 0.00 0.00 95 1012.9
20191020020104 38 225 0.0 0.0 0.00 0.00 0.00 95 1012.9
20191020015103 38 225 0.0 0.0 0.00 0.00 0.00 95 1012.9
20191020014103 38 225 0.0 2.0 0.00 0.00 0.00 96 1012.9
20191020013103 39 225 1.0 2.0 0.00 0.00 0.00 96 1012.9
20191020012104 39 225 0.0 0.0 0.00 0.00 0.00 96 1012.9
20191020011104 40 225 0.0 0.0 0.00 0.00 0.00 96 1012.9
20191020010103 40 225 0.0 0.0 0.00 0.00 0.00 96 1012.9
20191020005104 40 225 0.0 0.0 0.00 0.00 0.00 96 1012.9
20191020004104 40 225 0.0 0.0 0.00 0.00 0.00 96 1012.9
20191020003103 40 225 0.0 0.0 0.00 0.00 0.00 96 1012.9
20191020002103 40 225 0.0 0.0 0.00 0.00 0.00 96 1012.9
20191020001104 41 225 0.0 0.0 0.00 0.00 0.00 94 1013.2
20191020000104 42 225 0.0 0.0 0.00 0.00 0.00 95 1013.2
20191019235103 43 225 0.0 0.0 0.00 0.00 0.00 91 1013.2
20191019234104 43 225 0.0 0.0 0.00 0.00 0.00 89 1013.2
20191019233104 44 225 0.0 0.0 0.00 0.00 0.00 87 1013.2
20191019232103 44 225 1.0 2.0 0.00 0.00 0.00 87 1012.9
20191019231103 44 225 0.0 0.0 0.00 0.00 0.00 86 1012.9
20191019230104 44 225 0.0 0.0 0.00 0.00 0.00 86 1012.9
20191019225103 46 225 0.0 0.0 0.00 0.00 0.00 81 1012.9
20191019224104 47 225 0.0 0.0 0.00 0.00 0.00 81 1012.9
20191019223104 48 225 0.0 0.0 0.00 0.00 0.00 75 1012.9
20191019222103 48 225 0.0 2.0 0.00 0.00 0.00 74 1012.9
20191019221104 49 225 1.0 2.0 0.00 0.00 0.00 72 1013.2
20191019220104 50 225 0.0 0.0 0.00 0.00 0.00 68 1013.2
20191019215103 52 225 0.0 0.0 0.00 0.00 0.00 66 1013.5
20191019214104 53 225 0.0 1.0 0.00 0.00 0.00 60 1013.5
20191019213103 55 225 1.0 2.0 0.00 0.00 0.00 55 1013.5
20191019212104 57 225 2.0 6.0 0.00 0.00 0.00 51 1013.5
20191019211104 58 225 2.0 7.0 0.00 0.00 0.00 50 1013.5
20191019210104 60 225 1.0 2.0 0.00 0.00 0.00 47 1013.9
20191019205104 60 283 1.0 6.0 0.00 0.00 0.00 47 1013.9
20191019204104 61 210 2.0 6.0 0.00 0.00 0.00 44 1013.9
20191019203104 61 132 1.0 6.0 0.00 0.00 0.00 45 1013.9
20191019202103 61 199 4.0 7.0 0.00 0.00 0.00 43 1013.9
20191019201104 61 305 3.0 9.0 0.00 0.00 0.00 44 1013.9
20191019200103 62 197 2.0 6.0 0.00 0.00 0.00 44 1013.5
20191019195105 62 295 3.0 8.0 0.00 0.00 0.00 44 1013.5
20191019194104 61 202 6.0 9.0 0.00 0.00 0.00 46 1013.5
20191019193103 61 233 3.0 7.0 0.00 0.00 0.00 46 1013.5
20191019192104 61 317 2.0 7.0 0.00 0.00 0.00 45 1013.3
20191019191104 60 225 1.0 8.0 0.00 0.00 0.00 45 1013.5
20191019190104 60 236 5.0 8.0 0.00 0.00 0.00 46 1013.3
20191019185104 60 277 3.0 12.0 0.00 0.00 0.00 49 1013.3
20191019184104 60 225 3.0 10.0 0.00 0.00 0.00 47 1013.2
20191019183104 59 199 2.0 9.0 0.00 0.00 0.00 49 1013.2
20191019182103 59 173 4.0 12.0 0.00 0.00 0.00 48 1013.2
20191019181104 59 255 3.0 9.0 0.00 0.00 0.00 50 1013.2
20191019180104 59 326 4.0 8.0 0.00 0.00 0.00 49 1013.2
20191019175103 60 230 4.0 8.0 0.00 0.00 0.00 48 1013.2
20191019174103 59 303 2.0 9.0 0.00 0.00 0.00 53 1013.2
20191019173103 59 225 2.0 12.0 0.00 0.00 0.00 50 1013.2
20191019172103 58 217 4.0 9.0 0.00 0.00 0.00 53 1013.2
20191019171103 58 232 3.0 8.0 0.00 0.00 0.00 50 1013.5
20191019170104 58 225 4.0 9.0 0.00 0.00 0.00 51 1013.5
20191019165103 57 359 3.0 9.0 0.00 0.00 0.00 50 1013.5
20191019164103 57 4 2.0 6.0 0.00 0.00 0.00 51 1013.5
20191019163103 57 130 3.0 6.0 0.00 0.00 0.00 53 1013.5
20191019162103 55 225 2.0 8.0 0.00 0.00 0.00 57 1013.5
20191019161104 55 199 2.0 6.0 0.00 0.00 0.00 56 1013.5
20191019160104 54 72 3.0 9.0 0.00 0.00 0.00 58 1013.5
20191019155104 53 224 5.0 9.0 0.00 0.00 0.00 60 1013.5
20191019154104 51 214 3.0 8.0 0.00 0.00 0.00 63 1013.3
20191019153103 51 226 3.0 8.0 0.00 0.00 0.00 67 1013.2
20191019152104 51 208 5.0 8.0 0.00 0.00 0.00 64 1013.2
20191019151104 50 326 3.0 8.0 0.00 0.00 0.00 68 1013.2
20191019150105 50 256 2.0 9.0 0.00 0.00 0.00 67 1013.2
20191019145103 49 247 2.0 15.0 0.00 0.00 0.00 69 1013.2
20191019144103 48 41 2.0 10.0 0.00 0.00 0.00 70 1013.2
20191019143104 48 347 3.0 9.0 0.00 0.00 0.00 71 1013.0
20191019142104 47 167 3.0 9.0 0.00 0.00 0.00 72 1013.0
20191019141103 47 27 3.0 9.0 0.00 0.00 0.00 73 1012.9
20191019140104 46 259 2.0 9.0 0.00 0.00 0.00 75 1012.9
20191019135104 46 223 3.0 8.0 0.00 0.00 0.00 77 1012.9
20191019134103 45 157 3.0 10.0 0.00 0.00 0.00 78 1012.5
20191019133103 44 209 2.0 9.0 0.00 0.00 0.00 84 1012.5
20191019132104 43 251 1.0 7.0 0.00 0.00 0.00 88 1012.2
20191019131104 43 225 2.0 3.0 0.00 0.00 0.00 92 1012.2
20191019130105 42 227 2.0 6.0 0.00 0.00 0.00 94 1012.2
20191019125103 40 180 1.0 3.0 0.00 0.00 0.00 96 1012.2
20191019124104 39 225 0.0 3.0 0.00 0.00 0.00 96 1011.8
20191019123104 38 225 1.0 2.0 0.00 0.00 0.00 96 1011.8
20191019122103 38 225 0.0 3.0 0.00 0.00 0.00 95 1011.7
20191019121103 36 247 1.0 2.0 0.00 0.00 0.00 95 1011.5
20191019120105 36 292 0.0 0.0 0.00 0.00 0.00 95 1011.5
20191019115104 35 292 0.0 2.0 0.00 0.00 0.00 95 1011.5
20191019114104 35 225 1.0 2.0 0.00 0.00 0.00 95 1011.5
20191019113103 35 225 1.0 2.0 0.00 0.00 0.00 95 1011.3
20191019112104 35 225 2.0 2.0 0.00 0.00 0.00 95 1011.2
20191019111104 35 225 1.0 2.0 0.00 0.00 0.00 95 1011.2
20191019110104 35 225 2.0 2.0 0.00 0.00 0.00 95 1011.2
20191019105103 35 225 1.0 2.0 0.00 0.00 0.00 95 1011.0
20191019104104 35 225 1.0 2.0 0.00 0.00 0.00 95 1010.8
20191019103104 34 225 1.0 2.0 0.00 0.00 0.00 95 1010.8
20191019102104 34 225 1.0 2.0 0.00 0.00 0.00 95 1010.8